FW2254 Weather Reports


time (UTC)temp
C
wind
direction
speed
KPH
gust
KPH
rain 1hr
cm
rain 24hr
cm
rain mn
cm
humidity
%
barometer
mb
20260506160008 14 25 0.0 0.0 0.00 0.00 0.00 90 1012.0
20260506154600 14 25 0.0 0.0 0.00 0.00 0.00 90 1011.3
20260506154501 14 25 0.0 0.0 0.00 0.00 0.00 90 1011.3
20260506153057 14 25 0.0 0.0 0.00 0.00 0.00 90 1011.0
20260506151600 14 25 0.0 0.0 0.00 0.00 0.00 89 1010.8
20260506150055 14 25 0.0 0.0 0.00 0.00 0.00 89 1010.9
20260506144554 14 25 0.0 0.0 0.00 0.00 0.00 89 1010.8
20260506143052 14 25 0.0 0.0 0.00 0.00 0.00 89 1010.4
20260506141551 14 25 0.0 0.0 0.00 0.00 0.00 89 1010.2
20260506140048 14 25 0.0 0.0 0.00 0.00 0.00 89 1010.1
20260506134609 -17 0.0 0.0 0.00 0.00 0.00 1009.9
20260506133038 -17 0.0 0.0 0.00 0.00 0.00 1009.9
20260506131533 -17 0.0 0.0 0.00 0.00 0.00 1009.8
20260506130026 -17 25 0.0 0.0 0.00 0.00 0.00 1009.4
20260506124524 15 25 0.0 0.0 0.00 0.00 0.00 87 1009.1
20260506123022 15 25 0.0 0.0 0.00 0.00 0.00 87 1008.9
20260506121518 16 25 0.0 0.0 0.00 0.00 0.00 86 1008.5
20260506120014 16 25 0.0 0.0 0.00 0.00 0.00 86 1008.2
20260506114521 16 25 0.0 0.0 0.00 0.00 0.00 86 1008.1
20260506113009 16 25 0.0 0.0 0.00 0.00 0.00 85 1007.8
20260506111505 17 25 0.0 0.0 0.00 0.00 0.00 84 1007.5
20260506110033 17 25 0.0 0.0 0.00 0.00 0.00 84 1007.4
20260506104531 17 25 0.0 0.0 0.00 0.00 0.00 84 1007.2
20260506103106 17 25 0.0 0.0 0.00 0.00 0.00 84 1006.9
20260506101558 17 25 0.0 0.0 0.00 0.00 0.00 83 1007.0
20260506100053 17 25 0.0 0.0 0.00 0.00 0.00 82 1006.7
20260506094551 18 25 0.0 0.0 0.00 0.00 0.00 82 1006.4
20260506093053 18 25 0.0 0.0 0.00 0.00 0.00 81 1006.5
20260506091545 18 25 0.0 0.0 0.00 0.00 0.00 80 1006.4
20260506090040 19 25 0.0 0.0 0.00 0.00 0.00 81 1006.3
20260506084536 20 25 0.0 0.0 0.00 0.00 0.00 81 1006.3
20260506083032 21 25 0.0 0.0 0.00 0.00 0.00 80 1006.1
20260506081532 21 25 0.0 0.0 0.00 0.00 0.00 80 1005.9
20260506073048 23 25 0.0 0.0 0.00 0.00 0.00 89 1005.6
20260506071552 23 25 0.0 0.0 0.00 0.00 0.00 93 1005.3
20260506061544 23 25 0.0 0.0 0.00 0.00 0.00 93 1005.2
20260506044537 23 25 0.0 0.0 0.00 0.00 0.00 92 1004.9
20260506043033 23 25 0.0 0.0 0.00 0.00 0.00 92 1004.9
20260506041504 23 25 0.0 0.0 0.00 0.00 0.00 91 1005.0
20260506040101 23 25 0.0 0.0 0.00 0.00 0.00 91 1004.6
20260506034600 23 25 0.0 0.0 0.00 0.00 0.00 91 1004.4
20260506033053 23 25 0.0 0.0 0.00 0.00 0.00 91 1003.9
20260506031552 23 25 0.0 0.0 0.00 0.00 0.00 91 1003.9
20260506030052 23 25 0.0 0.0 0.00 0.00 0.00 91 1003.8
20260506024557 23 25 0.0 0.0 0.00 0.00 0.00 91 1003.7
20260506023047 23 25 0.0 0.0 0.00 0.00 0.00 91 1003.8
20260506021545 23 25 0.0 0.0 0.00 0.00 0.00 92 1003.0
20260506020053 24 25 0.0 0.0 0.00 0.00 0.00 91 1003.6
20260506014514 24 25 0.0 0.0 0.00 0.00 0.00 91 1003.6
20260506013010 25 25 0.0 0.0 0.00 0.00 0.00 89 1003.3
20260506011504 25 25 0.0 0.0 0.00 0.00 0.00 88 1003.3
20260506010003 25 25 0.0 0.0 0.00 0.00 0.00 88 1003.2
20260506004606 25 25 0.0 0.0 0.00 0.00 0.00 87 1003.3
20260506003058 26 25 0.0 0.0 0.00 0.00 0.00 86 1002.8
20260506001559 26 25 0.0 1.6 0.00 0.00 0.00 86 1002.4
20260506000116 26 25 0.0 0.0 0.00 0.00 0.00 84 1002.5
20260505234553 26 25 0.0 1.6 0.00 0.00 0.00 83 1002.5
20260505233055 27 25 0.0 4.8 0.00 0.00 0.00 82 1002.4
20260505231548 27 25 0.0 4.8 0.00 0.00 0.00 81 1002.4
20260505230100 27 25 0.0 3.2 0.00 0.00 0.00 81 1002.3
20260505224543 27 25 0.0 1.6 0.00 0.00 0.00 82 1002.3
20260505223042 27 25 0.0 3.2 0.00 0.00 0.00 82 1002.0
20260505221538 27 25 0.0 1.6 0.00 0.00 0.00 80 1002.3
20260505220040 27 25 1.6 4.8 0.00 0.00 0.00 79 1002.1
20260505214535 27 25 1.6 4.8 0.00 0.00 0.00 78 1002.4
20260505213037 28 25 1.6 6.4 0.00 0.00 0.00 76 1002.3
20260505211503 27 25 0.0 4.8 0.00 0.00 0.00 79 1002.6
20260505210001 28 25 0.0 4.8 0.00 0.00 0.00 78 1002.8
20260505204602 27 25 0.0 3.2 0.00 0.00 0.00 78 1002.9
20260505203103 27 25 0.0 6.4 0.00 0.00 0.00 79 1003.0
20260505201557 27 25 0.0 6.4 0.00 0.00 0.00 78 1003.0
20260505200055 28 25 0.0 4.8 0.00 0.00 0.00 78 1003.2
20260505194606 27 25 0.0 4.8 0.00 0.00 0.00 78 1003.3
20260505193048 27 25 0.0 1.6 0.00 0.00 0.00 80 1003.5
20260505191558 27 25 0.0 6.4 0.00 0.00 0.00 79 1003.5
20260505190047 27 25 0.0 3.2 0.00 0.00 0.00 79 1003.4
20260505184521 27 25 0.0 4.8 0.00 0.00 0.00 80 1003.6
20260505183017 26 25 0.0 4.8 0.00 0.00 0.00 81 1003.7
20260505181545 25 25 0.0 6.4 0.00 0.00 0.00 81 1003.8
20260505180049 26 25 0.0 4.8 0.00 0.00 0.00 81 1004.1
20260505174540 26 25 0.0 6.4 0.00 0.00 0.00 81 1004.0
20260505173035 25 25 0.0 4.8 0.00 0.00 0.00 85 1004.2
20260505171535 25 25 0.0 4.8 0.00 0.00 0.00 84 1004.4
20260505170033 25 25 0.0 4.8 0.00 0.00 0.00 84 1004.3
20260505164533 23 25 0.0 4.8 0.00 0.00 0.00 87 1004.3
20260505163031 23 25 0.0 4.8 0.00 0.00 0.00 87 1004.5
20260505161529 22 25 0.0 3.2 0.00 0.00 0.00 88 1004.5